Location: Carrer del Canonge
(41.4901°N, 2.2931°E)
Time: 03:41:07
(UTC+00:00)

Cosmos 1898 Rocket - Pass Details

Date: 18 September 2020
Orbit: 753 x 784 km, 74.0° (Epoch: 25 October)

Event Time Altitude Azimuth Distance (km) Brightness Sun altitude
Rises 18:22:03 0° 195° (SSW) 3,191 6.8 -6.0°
Reaches altitude 10° 18:24:24 10° 194° (SSW) 2,269 6.0 -6.4°
Maximum altitude 18:29:33 81° 108° (ESE) 767 3.4 -7.4°
Drops below altitude 10° 18:34:44 10° 22° (NNE) 2,288 5.8 -8.3°
Sets 18:37:06 0° 21° (NNE) 3,219 6.6 -8.8°
